Flag for Ukraine Weather past 2 weeks in Kyiv, Ukraine

Now
73 °F

Passing clouds.


Feels Like: 77 °F
Forecast: 50 / 79 °F
Wind: 3 mph from Southwest

Location: Kyiv

Current Time: Sep 1, 2014 at 11:16:06 AM

Latest Report: Sep 1, 2014 at 10:30 AM


Visibility: N/A

Pressure: 30.01 "Hg

Humidity: 53%

Dew point: 55 °F

Location of KyivLocation

Historic Weather in Kyiv — Graph

°F

Kyiv temperature yesterday

Maximum temperature yesterday: 75 °F (at 1:00 PM)
Minimum temperature yesterday: 50 °F (at 4:30 AM)
Average temperature yesterday: 62 °F

Past Weeks' High & Low Weather Summary

 TemperatureHumidityPressure
High84 °F (Aug 20, 3:30 PM)100% (Aug 18, 12:30 AM)30.12 "Hg (Aug 18, 12:30 AM)
Low43 °F (Aug 26, 6:00 AM)35% (Aug 20, 3:30 PM)29.71 "Hg (Aug 24, 9:30 PM)
Average62 °F72%29.95 "Hg
* Reported Aug 17 10:00 AM — Sep 1 10:00 AM, Kyiv, Weather by CustomWeather, © 2014

Note: Actual official high and low records may vary slightly from our data, if they occured in-between our weather recording intervals... More about our weather records

Advertising

Kyiv weather history for previous 24 hours

 ConditionsComfort  
Time TempWeatherWind HumidityBarometerVisibility
10:00 AM
Sep 1
72 °FPassing clouds.3 mph53%30.01 "HgN/A
9:30 AM70 °FPassing clouds.3 mph60%30.01 "HgN/A
9:00 AM66 °FSunny.1 mph73%29.98 "Hg10 mi
8:30 AM64 °FSunny.1 mph73%29.98 "Hg10 mi
8:00 AM61 °FSunny.1 mph83%29.98 "Hg10 mi
7:30 AM59 °FSunny.1 mph82%29.98 "Hg10 mi
7:00 AM57 °FClear.No wind94%29.98 "Hg10 mi
6:30 AM57 °FClear.No wind94%29.98 "Hg10 mi
5:30 AM59 °FFog.No wind94%29.98 "Hg3 mi
5:00 AM57 °FFog.No wind100%29.98 "Hg3 mi
4:30 AM57 °FFog.No wind100%29.98 "Hg3 mi
4:00 AM59 °FFog.No wind94%29.98 "Hg4 mi
3:30 AM59 °FFog.No wind94%29.98 "Hg3 mi
3:00 AM59 °FFog.No wind94%29.98 "Hg4 mi
2:30 AM57 °FFog.No wind100%29.98 "Hg4 mi
2:00 AM55 °FFog.No wind100%29.98 "Hg2 mi
1:30 AM55 °FFog.No wind94%29.98 "Hg4 mi
1:00 AM57 °FFog.1 mph100%29.98 "Hg4 mi
12:30 AM57 °FFog.1 mph94%29.98 "Hg6 mi
12:00 AM59 °FClear.1 mph88%29.98 "Hg10 mi
11:30 PM
Aug 31
59 °FClear.3 mph94%29.98 "Hg10 mi
11:00 PM59 °FClear.3 mph94%29.98 "Hg10 mi
10:30 PM59 °FClear.No wind94%29.98 "Hg10 mi
10:00 PM59 °FClear.1 mph94%29.98 "Hg5 mi
9:30 PM59 °FFog.No wind100%29.98 "Hg2 mi
9:00 PM61 °FFog.No wind100%29.98 "Hg2 mi
8:30 PM61 °FFog.No wind94%29.98 "Hg1 mi
8:00 PM63 °FFog.No wind94%29.98 "Hg2 mi
7:30 PM63 °FFog.No wind100%29.98 "Hg1 mi
7:00 PM66 °FFog.No wind88%29.98 "Hg3 mi
6:30 PM68 °FSunny.1 mph83%29.98 "Hg10 mi
6:00 PM66 °FSunny.1 mph88%29.98 "Hg10 mi
5:30 PM66 °FSprinkles. Broken clouds.1 mph88%29.98 "HgN/A
5:00 PM66 °FSprinkles. Broken clouds.1 mph88%30.01 "HgN/A
4:30 PM66 °FSprinkles. Broken clouds.6 mph83%30.01 "HgN/A
4:00 PM70 °FBroken clouds.8 mph69%30.01 "HgN/A
3:30 PM73 °FSprinkles. Broken clouds.8 mph53%30.01 "HgN/A
3:00 PM73 °FPartly sunny.8 mph50%30.01 "HgN/A
2:30 PM75 °FPassing clouds.6 mph47%30.01 "HgN/A
2:00 PM75 °FPassing clouds.10 mph44%30.01 "HgN/A
1:30 PM75 °FPassing clouds.8 mph44%30.01 "HgN/A
1:00 PM75 °FPassing clouds.10 mph44%30.01 "HgN/A
12:30 PM73 °FSunny.10 mph44%30.01 "Hg10 mi
12:00 PM73 °FPassing clouds.10 mph44%30.01 "HgN/A
11:30 AM73 °FSunny.8 mph47%30.01 "Hg10 mi
11:00 AM73 °FPassing clouds.6 mph50%30.01 "HgN/A
Weather by CustomWeather, © 2014

See weather overviewHow to use our weather pages